Location: Newark
(48.5667°N, 7.8167°E)
Time: 14:01:16
(UTC+00:00)

X-37B - Pass Details

Date: 02 August 2021
Orbit: 381 x 393 km, 45.0° (Epoch: 29 August)

Event Time Altitude Azimuth Distance (km) Brightness Sun altitude
Exits shadow 02:35:52 10° 169° (S) 1,392 3.0 -12.5°
Reaches altitude 10° 02:35:52 10° 169° (S) 1,392 3.0 -12.5°
Maximum altitude 02:36:58 11° 149° (SSE) 1,310 3.1 -12.3°
Drops below altitude 10° 02:38:05 10° 128° (SE) 1,395 3.5 -12.2°
Sets 02:41:16 0° 93° (E) 2,253 5.1 -11.8°
